Tracking 29932 objects as of 3-Dec-2024
HD Live streaming from Space Station
objects crossing your sky now

STARLINK-30793

Track STARLINK-30793 now!
10-day predictions
STARLINK-30793 is classified as:


NORAD ID: 58185
Int'l Code: 2023-167L
Perigee: 565.1 km
Apogee: 567.3 km
Inclination: 43.0 °
Period: 95.8 minutes
Semi major axis: 6937 km
RCS: Unknown
Launch date: October 30, 2023
Source: United States (US)
Launch site: AIR FORCE EASTERN TEST RANGE (AFETR)
Your satellite tracking list
Your tracking list is empty




NASA's NSSDC Master Catalog

Two Line Element Set (TLE):
1 58185U 23167L   24338.50470133  .00004262  00000-0  33037-3 0  9992
2 58185  43.0021 131.6603 0001613 271.1023  88.9634 15.02540068 61585
Source of the keplerian elements: AFSPC